Portada
METAR-TAF:

METAR-TAF

Aeroports :

Orange County Airport

Montgomery, Nova York, Estats Units d'Amèrica

latitud: 41-30-33N, longitud: 074-15-54W, altitud: 111 m

Observació

L'informe es va fer fa 11 minuts, a les 07:54 UTC
Vent 3 kt del Sud/Sud-Oest
Temperatura -6°C
Humitat 93%
Pressió 1023 hPa
Visibilitat: 16.1 km
Cel clar

METAR: KMGJ 150754Z AUTO 21003KT 10SM CLR M06/M07 A3021 RMK AO2 SLP234 T10611072

Hora: 03:05 (08:05 UTC)


TAF: manca

Observacions i pronòstics meteorològics de més de 4000 aeroports (METAR i TAF).

Les estacions disponibles són els punts grocs i vermells al mapa.

Posi el ratolí al punt desitjat per veure el nom de l'estació.

Feu clic per veure les observacions i els pronòstics meteorològics.

Per canviar el mapa: feu clic els botons verds amb una creu de color negre per apropar; al botó verd amb un guió per allunyar la imatge; o en les fletxes verdes per a mapes adjacents.


METAR-TAF: